Volver al catálogo

DIRECTV 11

ActivoComunicacionesGEO
NORAD 32729·PAYLOAD·🇺🇸 United States

Lanzado Mar 19, 2008 desde Sea Launch Platform

Loading…

TLE

ActualizadoSource: Space-Track

Época: Sep 14, 2026, 13:19 UTC

1 32729U 08013A   26257.55547081 -.00000134  00000-0  00000-0 0  9991
2 32729   0.0175 349.4417 0000345  76.3293  28.5465  1.00271796 46498

Sigue DIRECTV 11 en tiempo real con AllMySat

Download on the App Store